TimeEDT,TemperatureF,Dew PointF,Humidity,Sea Level PressureIn,VisibilityMPH,Wind Direction,Wind SpeedMPH,Gust SpeedMPH,PrecipitationIn,Events,Conditions,WindDirDegrees,DateUTC
12:15 AM,75.2,73.4,94,29.84,10.0,Calm,Calm,-,N/A,,Mostly Cloudy,0,2012-10-01 04:15:00
12:35 AM,75.2,71.6,89,29.84,10.0,Calm,Calm,-,N/A,,Scattered Clouds,0,2012-10-01 04:35:00
1:15 AM,73.4,71.6,94,29.83,10.0,Calm,Calm,-,N/A,,Mostly Cloudy,0,2012-10-01 05:15:00
1:35 AM,75.2,73.4,94,29.83,10.0,Calm,Calm,-,N/A,,Mostly Cloudy,0,2012-10-01 05:35:00
1:55 AM,75.2,73.4,94,29.83,10.0,Calm,Calm,-,N/A,,Overcast,0,2012-10-01 05:55:00
2:15 AM,75.2,73.4,94,29.82,10.0,Calm,Calm,-,N/A,,Overcast,0,2012-10-01 06:15:00
2:35 AM,75.2,73.4,94,29.80,10.0,Calm,Calm,-,N/A,,Overcast,0,2012-10-01 06:35:00
2:55 AM,75.2,73.4,94,29.80,10.0,Calm,Calm,-,N/A,,Mostly Cloudy,0,2012-10-01 06:55:00
3:35 AM,73.4,71.6,94,29.79,10.0,Calm,Calm,-,N/A,,Mostly Cloudy,0,2012-10-01 07:35:00
3:55 AM,73.4,71.6,94,29.79,10.0,Calm,Calm,-,N/A,,Mostly Cloudy,0,2012-10-01 07:55:00
4:15 AM,73.4,73.4,100,29.79,10.0,SE,3.5,-,N/A,,Mostly Cloudy,140,2012-10-01 08:15:00
4:35 AM,73.4,73.4,100,29.79,7.0,South,5.8,-,N/A,Rain,Light Rain,180,2012-10-01 08:35:00
4:55 AM,73.4,71.6,94,29.79,10.0,SE,3.5,-,N/A,,Overcast,140,2012-10-01 08:55:00
5:15 AM,73.4,71.6,94,29.79,10.0,SE,3.5,-,N/A,,Scattered Clouds,140,2012-10-01 09:15:00
5:35 AM,73.4,71.6,94,29.79,10.0,SE,3.5,-,N/A,,Mostly Cloudy,140,2012-10-01 09:35:00
5:50 AM,75.2,73.4,94,29.79,7.0,SE,4.6,-,N/A,,Scattered Clouds,130,2012-10-01 09:50:00
6:15 AM,73.4,71.6,94,29.79,10.0,SE,6.9,-,N/A,,Scattered Clouds,140,2012-10-01 10:15:00
6:35 AM,73.4,71.6,94,29.79,10.0,ESE,4.6,-,N/A,,Mostly Cloudy,120,2012-10-01 10:35:00
8:50 AM,78.8,75.2,89,29.80,12.0,SE,4.6,-,N/A,,Scattered Clouds,130,2012-10-01 12:50:00
9:50 AM,80.6,75.2,84,29.81,12.0,SSE,13.8,-,N/A,,Mostly Cloudy,150,2012-10-01 13:50:00
10:50 AM,82.4,75.2,79,29.82,12.0,South,12.7,17.3,N/A,,Mostly Cloudy,170,2012-10-01 14:50:00
11:50 AM,84.2,73.4,70,29.81,12.0,SSW,9.2,16.1,N/A,,Mostly Cloudy,210,2012-10-01 15:50:00
12:50 PM,84.2,73.4,70,29.80,12.0,SSW,11.5,-,N/A,,Mostly Cloudy,210,2012-10-01 16:50:00
2:51 PM,82.4,71.6,70,29.77,15.0,Calm,Calm,-,N/A,,Mostly Cloudy,0,2012-10-01 18:51:00
3:53 PM,82.4,75.2,79,29.74,20.0,ESE,6.9,-,N/A,,Mostly Cloudy,120,2012-10-01 19:53:00
5:58 PM,82.4,71.6,70,29.75,20.0,WSW,6.9,16.1,N/A,,Mostly Cloudy,250,2012-10-01 21:58:00
6:52 PM,82.4,73.4,74,29.76,20.0,SSW,5.8,-,N/A,,Mostly Cloudy,200,2012-10-01 22:52:00
7:52 PM,78.8,71.6,78,29.79,20.0,SSW,4.6,-,N/A,,Scattered Clouds,200,2012-10-01 23:52:00
8:53 PM,77.0,71.6,83,29.80,15.0,SSW,16.1,-,N/A,,Mostly Cloudy,200,2012-10-02 00:53:00
9:51 PM,75.2,71.6,89,29.82,15.0,South,4.6,-,N/A,,Mostly Cloudy,190,2012-10-02 01:51:00
10:55 PM,77.0,71.6,83,29.82,10.0,South,4.6,-,N/A,,Clear,180,2012-10-02 02:55:00
11:15 PM,77.0,71.6,83,29.82,10.0,South,4.6,-,N/A,,Clear,180,2012-10-02 03:15:00
11:35 PM,77.0,71.6,83,29.82,10.0,South,8.1,-,N/A,,Clear,170,2012-10-02 03:35:00
11:55 PM,77.0,71.6,83,29.83,10.0,South,5.8,-,N/A,,Clear,170,2012-10-02 03:55:00